GW1990 Weather Reports


time (UTC)temp
F
wind
direction
speed
knots
gust
knots
rain 1hr
in
rain 24hr
in
rain mn
in
humidity
%
barometer
mb
20260906123109 74 39 0.0 0.0 0.00 0.00 0.00 99 1001.6
20260906122608 74 58 0.0 0.0 0.00 0.00 0.00 99 1001.4
20260906122104 74 62 0.0 0.0 0.00 0.00 0.00 99 1001.7
20260906121600 73 60 0.0 0.0 0.00 0.00 0.00 99 1001.6
20260906121057 73 55 0.0 0.0 0.00 0.00 0.00 99 1001.6
20260906120551 73 55 0.0 0.0 0.00 0.00 0.00 99 1001.3
20260906120048 73 58 0.0 0.0 0.00 0.00 0.00 99 1001.3
20260906115543 73 59 0.0 0.0 0.00 0.00 0.00 99 1001.3
20260906115038 73 60 0.0 0.0 0.00 0.00 0.00 99 1001.2
20260906114532 73 53 0.0 0.0 0.00 0.00 0.00 99 1001.0
20260906114028 73 58 0.0 0.0 0.00 0.00 0.00 99 1000.8
20260906113526 73 60 0.0 0.0 0.00 0.00 0.00 99 1000.7
20260906113022 73 59 0.0 0.0 0.00 0.00 0.00 99 1000.8
20260906112517 73 62 0.0 0.0 0.00 0.00 0.00 99 1000.5
20260906112013 73 59 0.0 0.0 0.00 0.00 0.00 98 1000.5
20260906111513 73 57 0.0 0.0 0.00 0.00 0.00 98 1000.6
20260906111008 73 64 0.0 0.0 0.00 0.00 0.00 98 1000.7
20260906110503 73 57 0.0 0.0 0.00 0.00 0.00 98 1000.6
20260906110002 73 64 0.0 0.9 0.00 0.00 0.00 98 1000.4
20260906105458 73 59 0.0 0.0 0.00 0.00 0.00 98 1000.4
20260906104953 73 61 0.0 0.0 0.00 0.00 0.00 98 1000.1
20260906104452 73 61 0.0 0.0 0.00 0.00 0.00 98 1000.3
20260906103951 73 57 0.0 0.0 0.00 0.00 0.00 98 1000.4
20260906103449 73 57 0.0 0.9 0.00 0.00 0.00 98 1000.3
20260906102944 73 58 0.0 0.0 0.00 0.00 0.00 98 1000.6
20260906102445 73 60 0.0 0.0 0.00 0.00 0.00 97 1000.3
20260906101939 73 41 0.0 0.0 0.00 0.00 0.00 97 1000.3
20260906101434 73 73 0.9 1.7 0.00 0.00 0.00 97 1000.2
20260906100930 73 59 0.0 0.0 0.00 0.00 0.00 97 1000.1
20260906100430 73 59 0.0 0.0 0.00 0.00 0.00 97 1000.2
20260906095924 73 46 0.0 0.0 0.00 0.00 0.00 96 1000.0
20260906095420 73 55 0.0 0.9 0.00 0.00 0.00 96 1000.2
20260906094914 73 36 0.0 0.0 0.00 0.00 0.00 96 999.9
20260906094409 73 58 0.0 0.0 0.00 0.00 0.00 96 999.9
20260906093905 73 62 0.0 0.0 0.00 0.00 0.00 96 999.9
20260906093401 73 57 0.0 0.0 0.00 0.00 0.00 96 1000.0
20260906092900 73 57 0.0 0.0 0.00 0.00 0.00 95 999.8
20260906092355 74 55 0.0 0.0 0.00 0.00 0.00 95 1000.1
20260906091850 74 65 0.0 0.0 0.00 0.00 0.00 95 1000.1
20260906091347 74 47 0.0 0.9 0.00 0.00 0.00 95 999.9
20260906090843 74 56 0.0 0.0 0.00 0.00 0.00 95 999.9
20260906090342 74 45 0.0 0.0 0.00 0.00 0.00 94 999.9
20260906085837 74 59 0.0 0.0 0.00 0.00 0.00 94 999.6
20260906085336 75 56 0.0 0.0 0.00 0.00 0.00 94 999.7
20260906084830 75 51 0.0 0.0 0.00 0.00 0.00 93 999.5
20260906084330 75 63 0.0 0.0 0.00 0.00 0.00 93 999.7
20260906083819 75 58 0.0 0.0 0.00 0.00 0.00 92 999.6
20260906083315 75 55 0.0 0.0 0.00 0.00 0.00 92 999.6
20260906082809 75 61 0.0 0.0 0.00 0.00 0.00 92 999.6
20260906082306 75 35 0.0 0.9 0.00 0.00 0.00 92 999.6
20260906081800 76 56 0.0 0.0 0.00 0.00 0.00 91 999.7
20260906081255 76 64 0.0 0.9 0.00 0.00 0.00 91 999.9
20260906080751 76 65 0.0 0.0 0.00 0.00 0.00 91 999.6
20260906080248 76 60 0.9 0.9 0.00 0.00 0.00 91 999.7
20260906075741 77 57 0.9 0.9 0.00 0.00 0.00 91 999.8
20260906075241 77 63 0.0 0.0 0.00 0.00 0.00 91 999.5
20260906074737 77 67 0.0 0.0 0.00 0.00 0.00 91 1000.0
20260906074231 77 60 0.0 0.0 0.00 0.00 0.00 91 999.8
20260906073730 77 64 0.0 0.0 0.00 0.00 0.00 91 1000.0
20260906073225 77 58 0.0 0.9 0.00 0.00 0.00 90 1000.0
20260906072721 77 56 0.0 0.0 0.00 0.00 0.00 90 999.9
20260906072217 77 63 0.0 0.0 0.00 0.00 0.00 90 999.9
20260906071713 78 55 0.0 0.0 0.00 0.00 0.00 89 1000.0
20260906071212 78 57 0.0 0.9 0.00 0.00 0.00 89 999.9
20260906070709 78 64 0.0 0.0 0.00 0.00 0.00 89 999.9
20260906070204 78 60 0.0 0.0 0.00 0.00 0.00 88 999.8
20260906065704 78 61 0.0 0.0 0.00 0.00 0.00 88 999.9
20260906065159 78 62 0.0 0.0 0.00 0.00 0.00 87 999.8
20260906064655 79 64 0.0 0.0 0.00 0.00 0.00 87 999.7
20260906064150 79 65 0.0 0.0 0.00 0.00 0.00 86 999.6
20260906063645 79 65 0.0 0.0 0.00 0.00 0.00 86 999.7
20260906063141 79 62 0.9 0.9 0.00 0.00 0.00 85 999.3
20260906062636 79 67 0.0 0.0 0.00 0.00 0.00 85 999.5
20260906062135 79 66 0.9 1.7 0.00 0.00 0.00 85 999.8
20260906061632 80 64 0.0 0.9 0.00 0.00 0.00 85 999.7
20260906061131 80 70 0.0 0.9 0.00 0.00 0.00 85 999.5
20260906060628 80 69 0.0 0.0 0.00 0.00 0.00 85 999.7
20260906060125 80 74 0.9 0.9 0.00 0.00 0.00 85 999.8
20260906055620 80 67 0.0 0.0 0.00 0.00 0.00 85 999.8
20260906055115 80 71 0.0 0.0 0.00 0.00 0.00 85 999.7
20260906054610 81 63 0.0 0.0 0.00 0.00 0.00 85 999.7
20260906054105 81 71 0.0 0.9 0.00 0.00 0.00 84 999.7
20260906053602 81 59 0.0 0.0 0.00 0.00 0.00 84 999.7
20260906053057 81 61 0.0 0.0 0.00 0.00 0.00 83 999.7
20260906052552 81 73 0.0 0.9 0.00 0.00 0.00 83 999.8
20260906052050 81 68 0.0 0.0 0.00 0.00 0.00 84 999.8
20260906051545 82 73 0.0 0.9 0.00 0.00 0.00 84 999.8
20260906051040 82 68 0.9 0.9 0.00 0.00 0.00 84 999.7
20260906050535 82 65 0.0 0.9 0.00 0.00 0.00 85 999.8
20260906050030 82 64 0.0 0.9 0.00 0.00 0.00 85 999.6
20260906045528 82 79 0.0 0.0 0.00 0.00 0.00 84 999.7
20260906045024 83 66 0.9 0.9 0.00 0.00 0.00 84 999.6
20260906044520 83 61 0.0 0.0 0.00 0.00 0.00 84 999.5
20260906044015 83 57 0.0 0.9 0.00 0.00 0.00 85 999.5
20260906043511 83 58 0.9 0.9 0.00 0.00 0.00 85 999.2
20260906043007 84 57 0.0 0.9 0.00 0.00 0.00 85 999.3
20260906042506 84 67 0.0 0.0 0.00 0.00 0.00 85 999.3
20260906042005 84 71 0.0 0.0 0.00 0.00 0.00 84 999.1
20260906041502 84 59 0.9 0.9 0.00 0.00 0.00 84 999.1
20260906041001 85 56 0.0 0.0 0.00 0.00 0.00 83 999.2
20260906040456 85 65 0.9 0.9 0.00 0.00 0.00 83 998.9
20260906035952 85 71 0.0 0.9 0.00 0.00 0.00 83 999.0
20260906035447 86 65 0.0 0.9 0.00 0.00 0.00 82 999.0
20260906034942 86 59 1.7 1.7 0.00 0.00 0.00 82 998.8
20260906034437 86 75 0.9 0.9 0.00 0.00 0.00 81 999.0
20260906033932 86 66 0.9 1.7 0.00 0.00 0.00 81 998.9
20260906033426 86 61 0.0 0.0 0.00 0.00 0.00 80 998.6
20260906032922 86 61 0.0 0.0 0.00 0.00 0.00 80 998.6
20260906032418 87 60 0.0 0.0 0.00 0.00 0.00 80 998.4
20260906031913 87 65 0.0 0.0 0.00 0.00 0.00 79 998.5
20260906031408 87 72 0.0 0.9 0.00 0.00 0.00 79 998.6
20260906030903 87 63 0.9 1.7 0.00 0.00 0.00 79 998.6
20260906030358 87 66 0.0 0.0 0.00 0.00 0.00 78 998.5
20260906025853 87 70 0.0 0.9 0.00 0.00 0.00 78 998.4
20260906025347 87 55 0.0 0.0 0.00 0.00 0.00 77 998.1
20260906024846 87 56 0.0 0.0 0.00 0.00 0.00 77 998.1
20260906024345 87 63 0.0 0.9 0.00 0.00 0.00 77 998.2
20260906023841 88 69 0.0 0.0 0.00 0.00 0.00 77 998.1
20260906023337 88 60 0.0 0.0 0.00 0.00 0.00 76 998.1
20260906022832 88 63 0.0 0.0 0.00 0.00 0.00 76 998.0
20260906022326 88 63 0.0 0.0 0.00 0.00 0.00 76 998.1
20260906021822 88 71 0.0 0.0 0.00 0.00 0.00 76 997.9
20260906021321 88 63 0.0 0.0 0.00 0.00 0.00 75 997.7
20260906020816 88 68 0.0 0.0 0.00 0.00 0.00 75 997.8
20260906020315 88 63 0.0 0.9 0.00 0.00 0.00 75 997.7
20260906015810 88 65 0.0 0.0 0.00 0.00 0.00 74 997.7
20260906015308 89 71 0.0 0.0 0.00 0.00 0.00 74 997.7
20260906014803 89 59 0.0 0.0 0.00 0.00 0.00 73 997.7
20260906014259 89 68 0.0 0.0 0.00 0.00 0.00 73 997.4
20260906013754 89 67 0.9 0.9 0.00 0.00 0.00 73 997.6
20260906013249 89 61 0.0 0.0 0.00 0.00 0.00 73 997.3
20260906012745 89 64 0.0 0.0 0.00 0.00 0.00 73 997.4
20260906012240 89 68 0.0 0.9 0.00 0.00 0.00 73 997.3
20260906011735 89 62 0.0 0.0 0.00 0.00 0.00 73 997.1
20260906011234 89 62 0.0 0.0 0.00 0.00 0.00 72 997.5
20260906010730 89 62 0.0 0.0 0.00 0.00 0.00 72 997.3
20260906010226 89 61 0.0 0.0 0.00 0.00 0.00 71 997.1
20260906005721 90 56 0.0 0.0 0.00 0.00 0.00 71 997.3
20260906005220 90 59 0.0 0.0 0.00 0.00 0.00 70 996.9
20260906004720 90 56 0.0 0.0 0.00 0.00 0.00 70 997.0
20260906004215 90 59 0.0 0.0 0.00 0.00 0.00 70 997.1
20260906003710 90 59 0.0 0.0 0.00 0.00 0.00 69 996.9
20260906003206 90 60 0.0 0.0 0.00 0.00 0.00 69 997.2
20260906002706 90 59 0.0 0.0 0.00 0.00 0.00 69 997.1
20260906002201 91 61 0.0 0.0 0.00 0.00 0.00 68 997.2
20260906001656 91 59 0.0 0.0 0.00 0.00 0.00 68 997.1
20260906001155 91 64 0.0 0.0 0.00 0.00 0.00 68 997.2
20260906000651 91 64 0.0 0.0 0.00 0.00 0.00 68 997.2
20260906000146 91 61 0.0 0.0 0.00 0.00 0.00 67 997.1
20260905235645 92 62 0.0 0.0 0.00 0.00 0.00 66 997.3
20260905235141 92 61 0.0 0.0 0.00 0.00 0.00 66 997.1
20260905234636 93 60 0.0 0.0 0.00 0.00 0.00 65 997.0
20260905234131 93 59 0.0 0.0 0.00 0.00 0.00 65 997.2
20260905233626 93 62 0.0 0.0 0.00 0.00 0.00 64 997.2
20260905233120 93 59 0.0 0.0 0.00 0.00 0.00 64 997.0
20260905232616 93 58 0.0 0.0 0.00 0.00 0.00 63 997.1
20260905232111 93 58 0.0 0.0 0.00 0.00 0.00 63 996.9
20260905231606 93 58 0.0 0.0 0.00 0.00 0.00 63 997.0
20260905231102 94 59 0.0 0.0 0.00 0.00 0.00 62 996.9
20260905230603 94 62 0.0 0.0 0.00 0.00 0.00 62 996.9
20260905230100 94 62 0.0 0.0 0.00 0.00 0.00 62 996.9
20260905225554 94 65 0.0 0.0 0.00 0.00 0.00 61 997.1
20260905225050 95 59 0.0 0.0 0.00 0.00 0.00 59 997.2
20260905224550 95 50 0.0 0.0 0.00 0.00 0.00 60 997.0
20260905224049 96 61 0.0 0.0 0.00 0.00 0.00 59 996.8
20260905223547 96 58 0.0 0.0 0.00 0.00 0.00 58 996.7
20260905223042 97 55 0.9 1.7 0.00 0.00 0.00 57 996.8
20260905222543 97 58 0.0 0.9 0.00 0.00 0.00 56 996.9
20260905222038 97 57 0.0 0.0 0.00 0.00 0.00 55 996.8
20260905221534 97 341 2.6 2.6 0.00 0.00 0.00 54 996.8
20260905221030 98 21 3.5 4.3 0.00 0.00 0.00 54 997.0
20260905220526 98 49 2.6 2.6 0.00 0.00 0.00 53 996.7
20260905220022 99 42 2.6 2.6 0.00 0.00 0.00 53 996.8
20260905215521 100 358 1.7 1.7 0.00 0.00 0.00 51 996.8
20260905215017 100 18 0.0 0.9 0.00 0.00 0.00 52 997.0
20260905214513 100 63 0.0 0.0 0.00 0.00 0.00 51 997.1
20260905214008 100 53 2.6 2.6 0.00 0.00 0.00 51 996.8
20260905213503 100 14 1.7 1.7 0.00 0.00 0.00 50 996.7
20260905212958 100 12 2.6 4.3 0.00 0.00 0.00 53 996.8
20260905212453 100 20 0.9 1.7 0.00 0.00 0.00 52 997.0
20260905211952 99 29 0.9 1.7 0.00 0.00 0.00 53 997.0
20260905211448 98 10 2.6 2.6 0.00 0.00 0.00 54 996.9
20260905210943 97 3 0.9 0.9 0.00 0.00 0.00 55 997.2
20260905210439 96 312 2.6 5.2 0.00 0.00 0.00 57 997.0
20260905205938 97 40 0.0 0.9 0.00 0.00 0.00 56 997.3
20260905205433 97 31 0.9 1.7 0.00 0.00 0.00 57 997.1
20260905204932 96 356 1.7 1.7 0.00 0.00 0.00 57 997.3
20260905204428 96 0 0.0 1.7 0.00 0.00 0.00 57 997.3
20260905203927 97 81 2.6 2.6 0.00 0.00 0.00 54 997.5
20260905203422 97 37 0.9 0.9 0.00 0.00 0.00 53 997.2
20260905202918 99 69 3.5 5.2 0.00 0.00 0.00 52 997.3
20260905202413 99 50 1.7 2.6 0.00 0.00 0.00 50 997.4
20260905201909 99 15 2.6 4.3 0.00 0.00 0.00 49 997.3
20260905201404 100 29 0.9 0.9 0.00 0.00 0.00 47 997.2
20260905200903 101 66 0.0 0.0 0.00 0.00 0.00 47 997.2
20260905200359 102 68 0.0 0.0 0.00 0.00 0.00 47 997.2
20260905195857 103 351 1.7 1.7 0.00 0.00 0.00 45 997.4
20260905195353 102 247 2.6 2.6 0.00 0.00 0.00 45 997.7
20260905194848 104 41 1.7 4.3 0.00 0.00 0.00 44 997.3
20260905194348 104 54 0.0 0.0 0.00 0.00 0.00 45 997.6
20260905193848 102 27 1.7 2.6 0.00 0.00 0.00 46 997.6
20260905193342 102 8 1.7 1.7 0.00 0.00 0.00 46 997.6
20260905192838 102 32 2.6 2.6 0.00 0.00 0.00 46 997.5
20260905192334 102 351 2.6 2.6 0.00 0.00 0.00 46 997.6
20260905191833 101 30 1.7 1.7 0.00 0.00 0.00 46 997.9
20260905191332 101 14 1.7 2.6 0.00 0.00 0.00 46 997.9
20260905190831 101 10 3.5 6.1 0.00 0.00 0.00 46 997.8
20260905190325 101 331 3.5 5.2 0.00 0.00 0.00 46 998.0
20260905185824 101 19 4.3 5.2 0.00 0.00 0.00 46 997.8
20260905185319 102 3 3.5 5.2 0.00 0.00 0.00 44 997.9
20260905184818 102 306 0.9 0.9 0.00 0.00 0.00 44 998.0
20260905184317 102 322 2.6 4.3 0.00 0.00 0.00 46 998.0
20260905183816 102 352 0.9 0.9 0.00 0.00 0.00 45 998.2
20260905183312 101 293 0.9 1.7 0.00 0.00 0.00 46 998.3
20260905182806 101 295 3.5 4.3 0.00 0.00 0.00 47 998.4
20260905182306 100 51 0.0 0.0 0.00 0.00 0.00 47 998.4
20260905181801 101 340 1.7 1.7 0.00 0.00 0.00 45 998.6
20260905181301 102 325 2.6 4.3 0.00 0.00 0.00 44 998.6
20260905180754 103 30 2.6 2.6 0.00 0.00 0.00 45 998.5
20260905180250 102 297 1.7 2.6 0.00 0.00 0.00 48 998.6
20260905175744 101 84 0.9 0.9 0.00 0.00 0.00 47 998.6
20260905175239 101 1 2.6 2.6 0.00 0.00 0.00 49 998.6
20260905174734 101 46 0.9 0.9 0.00 0.00 0.00 50 998.6
20260905174230 103 357 1.7 2.6 0.00 0.00 0.00 50 998.6
20260905173726 102 54 0.0 0.9 0.00 0.00 0.00 50 998.7
20260905173221 100 62 0.0 0.0 0.00 0.00 0.00 51 998.8
20260905172715 100 34 0.0 0.0 0.00 0.00 0.00 51 998.9
20260905172209 100 89 0.0 0.0 0.00 0.00 0.00 53 998.8
20260905171705 100 101 1.7 1.7 0.00 0.00 0.00 54 998.9
20260905171201 100 330 1.7 1.7 0.00 0.00 0.00 54 998.8
20260905170658 101 91 0.9 0.9 0.00 0.00 0.00 53 998.8
20260905170157 100 74 0.0 0.9 0.00 0.00 0.00 53 999.2
20260905165652 101 340 0.9 0.9 0.00 0.00 0.00 55 999.2
20260905165147 100 2 0.0 0.0 0.00 0.00 0.00 53 999.2
20260905164642 99 294 0.9 1.7 0.00 0.00 0.00 53 999.3
20260905164141 99 124 0.0 0.9 0.00 0.00 0.00 54 999.3
20260905163638 98 0 0.0 0.9 0.00 0.00 0.00 56 999.3
20260905163134 98 102 0.9 0.9 0.00 0.00 0.00 58 999.4
20260905162630 97 45 0.0 0.0 0.00 0.00 0.00 56 999.4
20260905162129 97 69 0.0 0.0 0.00 0.00 0.00 55 999.8
20260905161629 96 40 1.7 1.7 0.00 0.00 0.00 59 999.5
20260905161127 96 29 0.0 0.9 0.00 0.00 0.00 59 999.6
20260905160627 96 18 0.9 0.9 0.00 0.00 0.00 60 999.5
20260905160121 95 52 0.0 0.9 0.00 0.00 0.00 61 999.7
20260905155621 96 44 0.9 1.7 0.00 0.00 0.00 60 999.6
20260905155119 95 12 0.9 1.7 0.00 0.00 0.00 62 999.4
20260905154614 95 77 0.0 0.0 0.00 0.00 0.00 62 999.8
20260905154110 94 33 0.0 0.0 0.00 0.00 0.00 63 999.6
20260905153606 94 319 2.6 2.6 0.00 0.00 0.00 64 999.7
20260905153100 93 48 0.9 0.9 0.00 0.00 0.00 64 999.5
20260905152555 94 96 0.9 0.9 0.00 0.00 0.00 65 999.5
20260905152050 93 80 0.9 0.9 0.00 0.00 0.00 65 999.7
20260905151545 92 41 0.0 0.0 0.00 0.00 0.00 66 999.5
20260905151040 92 17 0.9 0.9 0.00 0.00 0.00 67 999.8
20260905150536 91 73 0.0 0.9 0.00 0.00 0.00 69 999.5
20260905150033 91 21 0.9 0.9 0.00 0.00 0.00 68 999.4
20260905145527 90 60 0.0 0.0 0.00 0.00 0.00 70 999.5
20260905145027 89 11 0.9 1.7 0.00 0.00 0.00 72 999.5
20260905144522 89 43 1.7 1.7 0.00 0.00 0.00 73 999.7
20260905144021 88 64 0.0 0.9 0.00 0.00 0.00 74 999.7
20260905143520 88 322 0.9 1.7 0.00 0.00 0.00 74 999.8
20260905143015 88 40 0.0 0.0 0.00 0.00 0.00 75 999.6
20260905142514 87 38 0.0 0.9 0.00 0.00 0.00 75 999.5
20260905142009 87 27 0.0 0.9 0.00 0.00 0.00 76 999.5
20260905141503 87 25 0.9 0.9 0.00 0.00 0.00 76 999.4
20260905141000 87 43 0.0 0.0 0.00 0.00 0.00 75 999.5
20260905140455 86 69 0.0 0.0 0.00 0.00 0.00 75 999.7
20260905135953 86 52 0.0 0.0 0.00 0.00 0.00 75 999.6
20260905135449 86 78 0.0 0.0 0.00 0.00 0.00 77 999.4
20260905134944 86 81 0.0 0.0 0.00 0.00 0.00 77 999.6
20260905134444 85 63 0.0 0.0 0.00 0.00 0.00 78 999.7
20260905133943 85 96 0.0 0.9 0.00 0.00 0.00 77 999.9
20260905133438 84 84 0.0 0.0 0.00 0.00 0.00 78 999.7
20260905132938 84 79 0.0 0.0 0.00 0.00 0.00 78 999.7
20260905132433 84 61 0.0 0.0 0.00 0.00 0.00 79 999.4
20260905131928 83 71 0.0 0.0 0.00 0.00 0.00 80 999.8
20260905131424 83 72 0.0 0.0 0.00 0.00 0.00 80 999.7
20260905130923 82 69 0.0 0.0 0.00 0.00 0.00 81 999.6
20260905130418 82 72 0.0 0.0 0.00 0.00 0.00 83 999.8
20260905125918 82 88 0.0 0.9 0.00 0.00 0.00 84 999.6
20260905125413 82 70 0.0 0.0 0.00 0.00 0.00 83 999.7
20260905124908 81 72 0.0 0.0 0.00 0.00 0.00 83 999.5
20260905124405 81 83 0.9 0.9 0.00 0.00 0.00 84 999.3
20260905123904 81 81 0.0 0.0 0.00 0.00 0.00 85 999.5
20260905123401 80 76 0.0 0.0 0.00 0.00 0.00 85 999.3